Hourly Data Report for June 18, 2004

TORONTO CITY
ONTARIO

43°40'00.000" N
79°24'00.000" W
112.50 m
6158355
71508
XTO

Download Data

Hourly Data (June 2004)
Hourly Data Report for June 18, 2004
TIME
LST
Temp Definition
°C
Dew Point Definition
°C
Rel Hum Definition
%
Precip. Amount Definition
mm

Wind Dir Definition
10's deg

Wind Spd Definition
km/h
Visibility Definition
km
Stn Press Definition
kPa
Hmdx Definition


Wind Chill Definition


Weather Definition


00:00 18.4 16.7 90   LegendMM LegendMM LegendMM 100.01     LegendNANA
01:00 18.4 16.6 89   LegendMM LegendMM LegendMM 99.98     LegendNANA
02:00 17.6 16.5 93   LegendMM LegendMM LegendMM 99.98     LegendNANA
03:00 18.5 17.5 94   LegendMM LegendMM LegendMM 99.90     LegendNANA
04:00 18.3 17.5 95   LegendMM LegendMM LegendMM 99.94     LegendNANA
05:00 17.6 17.0 96   LegendMM LegendMM LegendMM 99.99     LegendNANA
06:00 18.4 17.6 95   LegendMM LegendMM LegendMM 100.01     LegendNANA
07:00 18.9 18.0 95   LegendMM LegendMM LegendMM 100.04     LegendNANA
08:00 20.9 18.4 86   LegendMM LegendMM LegendMM 100.02 27   LegendNANA
09:00 22.4 18.7 80   LegendMM LegendMM LegendMM 100.01 29   LegendNANA
10:00 23.2 18.4 74   LegendMM LegendMM LegendMM 100.01 30   LegendNANA
11:00 23.3 18.0 72   LegendMM LegendMM LegendMM 99.99 29   LegendNANA
12:00 23.4 18.7 75   LegendMM LegendMM LegendMM 99.97 30   LegendNANA
13:00 22.6 18.6 78   LegendMM LegendMM LegendMM 100.00 29   LegendNANA
14:00 24.2 20.1 78   LegendMM LegendMM LegendMM 99.93 32   LegendNANA
15:00 25.4 18.9 67   LegendMM LegendMM LegendMM 99.97 32   LegendNANA
16:00 24.9 18.2 66   LegendMM LegendMM LegendMM 99.97 31   LegendNANA
17:00 23.6 17.6 69   LegendMM LegendMM LegendMM 100.00 29   LegendNANA
18:00 23.6 17.1 67   LegendMM LegendMM LegendMM 100.02 29   LegendNANA
19:00 23.0 15.9 64   LegendMM LegendMM LegendMM 100.04 28   LegendNANA
20:00 21.6 14.8 65   LegendMM LegendMM LegendMM 100.09 25   LegendNANA
21:00 20.6 14.5 68   LegendMM LegendMM LegendMM 100.11     LegendNANA
22:00 20.1 14.8 72   LegendMM LegendMM LegendMM 100.12     LegendNANA
23:00 19.9 14.8 72   LegendMM LegendMM LegendMM 100.11     LegendNANA

Notes on Data Quality.

Legend

  • E = Estimated
  • M = Missing
  • NA = Not Available*
  • [empty] = Indicates an unobserved value
Date modified: